Location: Kershaw
(34.5481°N, 80.5823°W)
Time: 03:43:12
(UTC+00:00)

Altair - Pass Details

Date: 07 October 2022
Orbit: 1501 x 1682 km, 47.2° (Epoch: 02 December)

Event Time Altitude Azimuth Distance (km) Brightness Sun altitude
Exits shadow 10:43:34 10° 274° (W) 3,820 8.9 -8.6°
Reaches altitude 10° 10:43:39 10° 274° (W) 3,799 8.9 -8.6°
Maximum altitude 10:52:51 45° 345° (NNW) 2,118 8.1 -6.7°
Drops below altitude 10° 11:02:23 10° 56° (NE) 3,925 10.5 -4.8°
Sets 11:05:50 0° 63° (ENE) 4,926 11.3 -4.1°
